| time (UTC) | temp F | wind direction | speed MPH | gust MPH | rain 1hr in | rain 24hr in | rain mn in | humidity % | barometer mb |
| 20260506061544 | 60 | 309 | 6.0 | 13.0 | 0.00 | 0.01 | 0.00 | 37 | 1010.6 |
| 20260506044547 | 63 | 272 | 4.0 | 11.0 | 0.00 | 0.08 | 0.00 | 37 | 1009.5 |
| 20260506043040 | 63 | 281 | 5.0 | 11.0 | 0.00 | 0.08 | 0.00 | 37 | 1009.3 |
| 20260506041548 | 63 | 321 | 6.0 | 13.0 | 0.00 | 0.08 | 0.00 | 37 | 1009.3 |
| 20260506040040 | 64 | 360 | 3.0 | 9.0 | 0.00 | 0.08 | 0.00 | 37 | 1009.3 |
| 20260506034536 | 64 | 338 | 7.0 | 13.0 | 0.00 | 0.13 | 0.00 | 36 | 1008.8 |
| 20260506033037 | 64 | 311 | 6.0 | 10.0 | 0.00 | 0.13 | 0.00 | 38 | 1008.5 |
| 20260506031539 | 64 | 270 | 3.0 | 7.0 | 0.00 | 0.13 | 0.00 | 38 | 1008.4 |
| 20260506030039 | 65 | 342 | 3.0 | 9.0 | 0.00 | 0.13 | 0.00 | 36 | 1008.5 |
| 20260506024535 | 67 | 279 | 4.0 | 12.0 | 0.00 | 0.18 | 0.00 | 34 | 1008.3 |
| 20260506023031 | 68 | 261 | 7.0 | 10.0 | 0.00 | 0.18 | 0.00 | 30 | 1008.2 |
| 20260506021530 | 69 | 259 | 2.0 | 5.0 | 0.00 | 0.18 | 0.00 | 25 | 1008.1 |
| 20260506020033 | 69 | 284 | 0.0 | 4.0 | 0.00 | 0.18 | 0.00 | 25 | 1008.2 |
| 20260506014530 | 71 | 306 | 3.0 | 8.0 | 0.00 | 0.24 | 0.00 | 22 | 1008.1 |
| 20260506013032 | 73 | 5 | 1.0 | 4.0 | 0.00 | 0.24 | 0.00 | 20 | 1008.2 |
| 20260506011539 | 74 | 360 | 0.0 | 4.0 | 0.00 | 0.24 | 0.00 | 18 | 1008.3 |
| 20260506010023 | 73 | 304 | 0.0 | 6.0 | 0.00 | 0.24 | 0.00 | 19 | 1008.5 |
| 20260506004535 | 74 | 327 | 0.0 | 9.0 | 0.00 | 0.26 | 0.00 | 18 | 1008.5 |
| 20260506003021 | 72 | 332 | 5.0 | 11.0 | 0.00 | 0.26 | 0.00 | 19 | 1008.4 |
| 20260506001524 | 72 | 360 | 4.0 | 8.0 | 0.00 | 0.26 | 0.00 | 19 | 1008.6 |
| 20260506000021 | 73 | 49 | 2.0 | 8.0 | 0.00 | 0.26 | 0.00 | 20 | 1008.6 |
| 20260505234517 | 73 | 20 | 6.0 | 12.0 | 0.00 | 0.26 | 0.00 | 20 | 1008.7 |
| 20260505233025 | 72 | 355 | 0.0 | 5.0 | 0.00 | 0.26 | 0.00 | 22 | 1008.7 |
| 20260505231520 | 71 | 32 | 3.0 | 12.0 | 0.00 | 0.26 | 0.00 | 21 | 1008.8 |
| 20260505230012 | 71 | 72 | 2.0 | 15.0 | 0.00 | 0.26 | 0.00 | 20 | 1009.0 |
| 20260505224511 | 71 | 87 | 0.0 | 11.0 | 0.00 | 0.26 | 0.00 | 22 | 1009.0 |
| 20260505223015 | 71 | 49 | 3.0 | 12.0 | 0.00 | 0.26 | 0.00 | 22 | 1009.1 |
| 20260505221504 | 69 | 28 | 3.0 | 12.0 | 0.00 | 0.26 | 0.00 | 25 | 1009.4 |
| 20260505220001 | 68 | 96 | 2.0 | 10.0 | 0.00 | 0.26 | 0.00 | 25 | 1009.6 |
| 20260505214602 | 67 | 25 | 0.0 | 15.0 | 0.00 | 0.26 | 0.00 | 26 | 1009.6 |
| 20260505213058 | 68 | 319 | 1.0 | 13.0 | 0.00 | 0.26 | 0.00 | 28 | 1009.8 |
| 20260505211552 | 66 | 265 | 0.0 | 7.0 | 0.00 | 0.26 | 0.00 | 34 | 1010.0 |
| 20260505210054 | 66 | 160 | 0.0 | 5.0 | 0.00 | 0.26 | 0.00 | 34 | 1010.1 |
| 20260505204557 | 66 | 290 | 0.0 | 8.0 | 0.00 | 0.26 | 0.00 | 32 | 1010.4 |
| 20260505203046 | 65 | 56 | 0.0 | 6.0 | 0.00 | 0.26 | 0.00 | 37 | 1010.5 |
| 20260505201547 | 64 | 212 | 1.0 | 6.0 | 0.00 | 0.26 | 0.00 | 37 | 1010.6 |
| 20260505200040 | 63 | 236 | 1.0 | 6.0 | 0.00 | 0.26 | 0.00 | 39 | 1010.7 |
| 20260505194535 | 62 | 120 | 3.0 | 10.0 | 0.00 | 0.26 | 0.00 | 44 | 1011.0 |
| 20260505193041 | 61 | 129 | 1.0 | 8.0 | 0.00 | 0.26 | 0.00 | 44 | 1011.0 |
| 20260505191535 | 61 | 36 | 0.0 | 9.0 | 0.00 | 0.26 | 0.00 | 45 | 1011.0 |
| 20260505190031 | 61 | 341 | 1.0 | 7.0 | 0.00 | 0.26 | 0.00 | 46 | 1010.9 |
| 20260505184527 | 59 | 161 | 2.0 | 7.0 | 0.00 | 0.26 | 0.00 | 50 | 1011.0 |
| 20260505183034 | 57 | 196 | 1.0 | 6.0 | 0.00 | 0.26 | 0.00 | 54 | 1011.1 |
| 20260505181519 | 56 | 261 | 0.0 | 4.0 | 0.00 | 0.26 | 0.00 | 52 | 1011.1 |
| 20260505180019 | 56 | 235 | 2.0 | 4.0 | 0.00 | 0.26 | 0.00 | 54 | 1011.0 |
| 20260505174515 | 56 | 16 | 1.0 | 7.0 | 0.00 | 0.26 | 0.00 | 53 | 1010.9 |
| 20260505173013 | 55 | 317 | 2.0 | 8.0 | 0.00 | 0.26 | 0.00 | 54 | 1010.7 |
| 20260505171510 | 55 | 249 | 2.0 | 9.0 | 0.00 | 0.26 | 0.00 | 55 | 1010.7 |
| 20260505170005 | 54 | 284 | 2.0 | 7.0 | 0.00 | 0.26 | 0.00 | 58 | 1010.5 |
| 20260505164604 | 53 | 276 | 4.0 | 8.0 | 0.00 | 0.27 | 0.00 | 58 | 1010.5 |
| 20260505163056 | 52 | 134 | 0.0 | 0.0 | 0.00 | 0.27 | 0.00 | 60 | 1010.5 |
| 20260505161556 | 51 | 267 | 0.0 | 0.0 | 0.00 | 0.27 | 0.00 | 61 | 1010.4 |
| 20260505153050 | 49 | 248 | 0.0 | 2.0 | 0.00 | 0.27 | 0.00 | 64 | 1010.1 |
| 20260505151536 | 48 | 259 | 0.0 | 2.0 | 0.00 | 0.27 | 0.00 | 65 | 1009.9 |
| 20260505124523 | 46 | 295 | 6.0 | 12.0 | 0.00 | 0.27 | 0.00 | 65 | 1008.4 |
| 20260505123013 | 46 | 289 | 5.0 | 12.0 | 0.00 | 0.27 | 0.00 | 66 | 1008.5 |
| 20260505121514 | 45 | 268 | 6.0 | 11.0 | 0.00 | 0.27 | 0.00 | 66 | 1008.5 |
| 20260505120009 | 45 | 293 | 7.0 | 12.0 | 0.00 | 0.27 | 0.00 | 66 | 1008.5 |
| 20260505114511 | 45 | 336 | 5.0 | 10.0 | 0.00 | 0.27 | 0.00 | 66 | 1008.5 |
| 20260505113010 | 45 | 290 | 5.0 | 10.0 | 0.00 | 0.27 | 0.00 | 66 | 1008.5 |
| 20260505111512 | 45 | 315 | 5.0 | 13.0 | 0.00 | 0.27 | 0.00 | 66 | 1008.5 |
| 20260505101503 | 45 | 274 | 3.0 | 7.0 | 0.00 | 0.27 | 0.00 | 67 | 1008.7 |
| 20260505100057 | 45 | 267 | 3.0 | 8.0 | 0.00 | 0.27 | 0.00 | 67 | 1008.7 |
| 20260505094557 | 44 | 296 | 3.0 | 7.0 | 0.00 | 0.27 | 0.00 | 68 | 1008.8 |
| 20260505093104 | 44 | 277 | 4.0 | 11.0 | 0.00 | 0.27 | 0.00 | 68 | 1008.7 |
| 20260505091554 | 44 | 304 | 3.0 | 8.0 | 0.00 | 0.27 | 0.00 | 69 | 1008.8 |
| 20260505090053 | 44 | 290 | 3.0 | 7.0 | 0.00 | 0.27 | 0.00 | 69 | 1008.6 |
| 20260505084553 | 44 | 336 | 3.0 | 12.0 | 0.00 | 0.27 | 0.00 | 69 | 1008.8 |
| 20260505083053 | 44 | 306 | 5.0 | 11.0 | 0.00 | 0.27 | 0.00 | 70 | 1008.8 |
| 20260505081551 | 44 | 305 | 7.0 | 14.0 | 0.00 | 0.27 | 0.00 | 70 | 1008.9 |
| 20260505080048 | 43 | 216 | 0.0 | 4.0 | 0.00 | 0.27 | 0.00 | 71 | 1009.1 |
| 20260505074540 | 44 | 242 | 0.0 | 3.0 | 0.00 | 0.27 | 0.00 | 71 | 1009.3 |
| 20260505073037 | 44 | 250 | 4.0 | 7.0 | 0.00 | 0.27 | 0.00 | 71 | 1008.8 |
| 20260505071530 | 43 | 211 | 0.0 | 3.0 | 0.00 | 0.27 | 0.00 | 71 | 1009.4 |
| 20260505070039 | 43 | 267 | 1.0 | 3.0 | 0.01 | 0.27 | 0.00 | 71 | 1009.0 |